Arctic Village, AK

5:09 PM AKDT on July 20, 2017 (GMT -0800)
Arctic Village

Weather History for PARC - January, 2012

Change the Weather History Date:

Tuesday, January 3, 2012

  Actual Average Record
Temperature  
Mean Temperature -20 °F -  
Max Temperature -9 °F -7 °F 19 °F (2016)
Min Temperature -32 °F -29 °F -55 °F (1971)
Degree Days  
Heating Degree Days 86    
Moisture  
Dew Point -23 °F    
Average Humidity 64    
Maximum Humidity 76    
Minimum Humidity 58    
Precipitation  
Precipitation 0.00 in - - ()
Sea Level Pressure  
Sea Level Pressure 29.47 in    
Wind  
Wind Speed 5 mph (SW)    
Max Wind Speed 9 mph    
Max Gust Speed -    
Visibility 9 miles    
Events      
Averages and records for this station are not official NWS values.
T = Trace of Precipitation, MM = Missing Value Source: NWS Daily Summary

Daily Weather History Graph

Daily Weather History Graph

Search for Another Location

Airport or City:

Trip Planner

Search our weather history database for the weather conditions in past years. The results will help you decide how hot, cold, wet, or windy it might be!

Date:

Astronomy

Jan. 03, 2012 Rise Set
Actual Time 12:14 PM AKST 1:19 PM AKST
Civil Twilight 9:58 AM AKST 3:35 PM AKST
Nautical Twilight 8:31 AM AKST 5:02 PM AKST
Astronomical Twilight 7:20 AM AKST 6:13 PM AKST
Moon 10:50 AM AKST (1/3) 5:28 AM AKST (1/3)
Length of Visible Light 5h 36m
Length of Day
1h 04m
Waxing Gibbous, 74% of the Moon is Illuminated
Jan 3
Waxing Gibbous
Jan 8
Full
Jan 16
Last Quarter
Jan 22
New
Jan 30
First Quarter

Hourly Weather History & Observations

Time (AKST) Temp. Windchill Dew Point Humidity Pressure Visibility Wind Dir Wind Speed Gust Speed Precip Events Conditions
12:16 AM -9.4 °F -26.8 °F -18.4 °F 65% 29.40 in 9.0 mi SW 9.2 mph - N/A   Overcast
12:36 AM -9.4 °F -22.7 °F -18.4 °F 65% 29.41 in 10.0 mi SW 5.8 mph - N/A   Mostly Cloudy
12:56 AM -9.4 °F -22.7 °F -18.4 °F 65% 29.42 in 10.0 mi SSW 5.8 mph - N/A   Mostly Cloudy
1:16 AM -9.4 °F -24.3 °F -18.4 °F 65% 29.42 in 10.0 mi SSW 6.9 mph - N/A   Overcast
1:36 AM -9.4 °F -25.6 °F -18.4 °F 65% 29.42 in 8.0 mi SSW 8.1 mph - N/A   Mostly Cloudy
1:56 AM -9.4 °F -26.8 °F -18.4 °F 65% 29.43 in 6.0 mi SSW 9.2 mph - N/A   Overcast
2:16 AM -9.4 °F -24.3 °F -18.4 °F 65% 29.44 in 5.0 mi SSW 6.9 mph - N/A   Overcast
2:36 AM -9.4 °F -22.7 °F -18.4 °F 65% 29.44 in 4.0 mi SSW 5.8 mph - N/A   Overcast
2:56 AM -9.4 °F -22.7 °F -18.4 °F 65% 29.44 in 4.0 mi SSW 5.8 mph - N/A   Overcast
3:16 AM -9.4 °F -24.3 °F -18.4 °F 65% 29.45 in 3.0 mi SW 6.9 mph - N/A   Overcast
3:36 AM -9.4 °F -25.6 °F -20.2 °F 59% 29.45 in 5.0 mi SW 8.1 mph - N/A   Overcast
3:56 AM -11.2 °F -27.8 °F -20.2 °F 64% 29.45 in 5.0 mi SW 8.1 mph - N/A   Overcast
4:16 AM -11.2 °F -24.8 °F -20.2 °F 64% 29.46 in 10.0 mi SSW 5.8 mph - N/A   Overcast
4:36 AM -11.2 °F -23.0 °F -22.0 °F 59% 29.46 in 9.0 mi SSW 4.6 mph - N/A   Overcast
5:16 AM -13.0 °F -27.0 °F -22.0 °F 64% 29.46 in 10.0 mi SW 5.8 mph - N/A   Mostly Cloudy
5:36 AM -13.0 °F -22.7 °F -22.0 °F 64% 29.46 in 10.0 mi SSW 3.5 mph - N/A   Partly Cloudy
5:56 AM -14.8 °F -29.1 °F -23.8 °F 64% 29.46 in 10.0 mi SSW 5.8 mph - N/A   Clear
6:16 AM -14.8 °F -27.2 °F -23.8 °F 64% 29.46 in 10.0 mi SSW 4.6 mph - N/A   Clear
6:36 AM -14.8 °F -27.2 °F -23.8 °F 64% 29.46 in 10.0 mi SSW 4.6 mph - N/A   Clear
6:56 AM -14.8 °F -27.2 °F -25.6 °F 58% 29.46 in 10.0 mi SW 4.6 mph - N/A   Clear
7:16 AM -16.6 °F -34.4 °F -23.8 °F 70% 29.45 in 10.0 mi SW 8.1 mph - N/A   Clear
7:36 AM -16.6 °F -34.4 °F -25.6 °F 64% 29.46 in 10.0 mi WSW 8.1 mph - N/A   Partly Cloudy
7:56 AM -16.6 °F -34.4 °F -22.0 °F 76% 29.46 in 10.0 mi SSW 8.1 mph - N/A   Mostly Cloudy
8:16 AM -16.6 °F -34.4 °F -25.6 °F 64% 29.46 in 10.0 mi SSW 8.1 mph - N/A   Overcast
8:36 AM -16.6 °F -34.4 °F -25.6 °F 64% 29.47 in 10.0 mi SW 8.1 mph - N/A   Overcast
8:56 AM -16.6 °F -31.3 °F -25.6 °F 64% 29.47 in 10.0 mi SSW 5.8 mph - N/A   Overcast
9:16 AM -16.6 °F -32.9 °F -25.6 °F 64% 29.47 in 10.0 mi SSW 6.9 mph - N/A   Scattered Clouds
9:36 AM -16.6 °F -29.3 °F -25.6 °F 64% 29.46 in 10.0 mi SSW 4.6 mph - N/A   Clear
9:56 AM -16.6 °F - -27.4 °F 58% 29.47 in 10.0 mi Calm Calm - N/A   Partly Cloudy
10:16 AM -18.4 °F - -25.6 °F 70% 29.47 in 10.0 mi Calm Calm - N/A   Mostly Cloudy
10:36 AM -18.4 °F -28.9 °F -27.4 °F 63% 29.48 in 10.0 mi SW 3.5 mph - N/A   Scattered Clouds
10:56 AM -20.2 °F -30.9 °F -29.2 °F 63% 29.48 in 10.0 mi WSW 3.5 mph - N/A   Clear
11:16 AM -20.2 °F - - N/A% 29.48 in 3.0 mi Calm Calm - N/A   Clear
11:36 AM -18.4 °F - -27.4 °F 63% 29.49 in 10.0 mi Calm Calm - N/A   Clear
11:56 AM -20.2 °F -30.9 °F -27.4 °F 69% 29.49 in 10.0 mi SW 3.5 mph - N/A   Clear
12:16 PM -23.8 °F - - N/A% 29.49 in 10.0 mi Calm Calm - N/A   Clear
12:36 PM -20.2 °F - - N/A% 29.50 in 10.0 mi Calm Calm - N/A   Clear
12:56 PM -23.8 °F - - N/A% 29.50 in 10.0 mi Calm Calm - N/A   Clear
1:16 PM -23.8 °F - - N/A% 29.50 in 10.0 mi Calm Calm - N/A   Clear
1:36 PM -25.6 °F - - N/A% 29.50 in 7.0 mi Calm Calm - N/A   Clear
1:56 PM -25.6 °F - - N/A% 29.50 in 9.0 mi Calm Calm - N/A   Clear
2:16 PM -25.6 °F - - N/A% 29.50 in 8.0 mi Calm Calm - N/A   Clear
2:36 PM -27.4 °F -39.2 °F - N/A% 29.50 in 9.0 mi East 3.5 mph - N/A   Clear
2:56 PM -27.4 °F - - N/A% 29.50 in 10.0 mi Calm Calm - N/A   Clear
3:16 PM -27.4 °F -39.2 °F - N/A% 29.51 in 10.0 mi NE 3.5 mph - N/A   Clear
3:36 PM -27.4 °F -41.9 °F - N/A% 29.51 in 10.0 mi NE 4.6 mph - N/A   Clear
3:56 PM -27.4 °F - - N/A% 29.50 in 10.0 mi Calm Calm - N/A   Clear
4:36 PM -29.2 °F - - N/A% 29.51 in 10.0 mi Calm Calm - N/A   Clear
4:56 PM -29.2 °F - - N/A% 29.51 in 10.0 mi Calm Calm - N/A   Clear
5:16 PM -32.8 °F - - N/A% 29.51 in 10.0 mi Calm Calm - N/A   Clear
5:36 PM -31.0 °F - - N/A% 29.51 in 10.0 mi Calm Calm - N/A   Clear
5:56 PM -31.0 °F - - N/A% 29.51 in 10.0 mi Calm Calm - N/A   Clear
6:16 PM -31.0 °F - - N/A% 29.52 in 10.0 mi Calm Calm - N/A   Clear
6:36 PM -29.2 °F - - N/A% 29.52 in 10.0 mi Calm Calm - N/A   Clear
6:56 PM -32.8 °F - - N/A% 29.52 in 10.0 mi Calm Calm - N/A   Clear
7:16 PM -34.6 °F - - N/A% 29.52 in 10.0 mi Calm Calm - N/A   Clear
7:36 PM -34.6 °F - - N/A% 29.52 in 10.0 mi Calm Calm - N/A   Clear
7:56 PM -32.8 °F - - N/A% 29.53 in 10.0 mi Calm Calm - N/A   Clear
8:16 PM -34.6 °F - - N/A% 29.53 in 10.0 mi Calm Calm - N/A   Partly Cloudy
8:36 PM -32.8 °F - - N/A% 29.54 in 10.0 mi Calm Calm - N/A   Mostly Cloudy
8:56 PM -34.6 °F -47.4 °F - N/A% 29.54 in 10.0 mi North 3.5 mph - N/A   Partly Cloudy
9:16 PM -34.6 °F - - N/A% 29.54 in 10.0 mi Calm Calm - N/A   Partly Cloudy
9:36 PM -34.6 °F - - N/A% 29.54 in 10.0 mi Calm Calm - N/A   Clear
9:56 PM -32.8 °F -45.3 °F - N/A% 29.54 in 10.0 mi NNE 3.5 mph - N/A   Clear
10:16 PM -32.8 °F -48.2 °F - N/A% 29.54 in 10.0 mi NE 4.6 mph - N/A   Clear
10:36 PM -32.8 °F - - N/A% 29.54 in 10.0 mi Calm Calm - N/A   Clear
10:56 PM -34.6 °F - - N/A% 29.54 in 10.0 mi Calm Calm - N/A   Clear
11:16 PM -34.6 °F - - N/A% 29.54 in 9.0 mi Calm Calm - N/A   Clear
11:36 PM -36.4 °F - - N/A% 29.54 in 10.0 mi Calm Calm - N/A   Clear
11:56 PM -34.6 °F - - N/A% 29.52 in 10.0 mi Calm Calm - N/A   Clear